Simultaneous Nadir Overpasses (SNOs) Predictions

Prediction of SNOs between GOES-17 and AQUA Satellite Orbit:

Table of predicted SNOs for the next 14.0 days since TLE Epoch: 11/23/2024
Index Date Time (GOES-17) GOES-17 Lat,Lon AQUA Lat,Lon Distance(km) Time Diff (sec)
1 11/24/2024 21:19:01 0.00,-104.68 0.25,-103.66 117.05 80
2 11/25/2024 09:38:38 -0.00,-104.72 0.78,-108.40 417.95 80
3 11/27/2024 09:17:25 -0.00,-104.73 -0.18,-103.86 99.00 80
4 11/27/2024 21:37:10 0.00,-104.69 -0.84,-108.63 448.67 80
5 11/29/2024 21:21:15 -0.00,-104.70 0.12,-104.08 69.24 80
6 11/30/2024 09:40:51 0.00,-104.74 0.86,-108.83 464.84 80
7 12/02/2024 09:19:34 0.01,-104.74 -0.08,-104.27 53.24 80
8 12/02/2024 21:39:18 -0.02,-104.69 -0.94,-109.05 494.77 80
9 12/04/2024 21:23:20 -0.03,-104.69 0.05,-104.49 24.32 80
